Presure
88 89 90 95 106 99 108 159 162 93 165 124 169 135 155 157 151 147 100 132 145 154 168 103 99 160 101 144 159 90 88 95 91 136 96 154 210 207 198 160 179 187 196
93 95 99 97 93 98 85 110 137 188 159 162 170 96 161 158 155 143 141 147 110 142 138 137 162 97 126 99 154 91 113 94 91 137 97 101 163 180 136 130 158 199 209
91 101 82 107 100 144 108 135 179 127 88 147 136 110 105 153 165 150 143 139 145 94 158 181 166 168 162 156 107 94 86 96 102 154 130 97 94 118 163 112 115 179 194
99 99 93 102 119 126 161 108 148 171 172 88 126 152 97 96 151 156 143 155 142 144 152 158 94 176 151 122 166 101 95 97 100 87 162 95 99 118 168 155 116 128 180
100 91 170 104 102 101 109 155 152 168 170 167 157 144 160 148 128 140 160 142 149 128 148 149 160 160 126 155 98 152 103 88 146 127 102 161 132 126 127 143 149 139 141
100 100 97 107 149 100 145 140 124 167 162 164 170 174 142 163 158 154 141 158 150 152 141 145 149 159 169 157 150 148 165 121 98 156 90 154 155 132 138 139 133 161 181
100 105 105 104 102 114 158 159 165 160 162 164 170 160 174 83 150 166 147 155 154 152 143 108 150 151 158 166 162 152 104 152 152 155 152 164 156 134 103 128 133 137 159
98 104 99 98 144 167 164 171 148 150 166 165 167 164 174 160 127 161 162 160 159 158 155 149 151 149 153 157 173 165 158 156 155 112 140 162 127 119 164 143 116 142 149
104 101 97 132 102 162 157 152 163 162 152 166 166 166 172 172 166 154 157 160 158 163 155 160 143 149 151 148 151 141 174 154 157 147 154 155 186 115 167 109 119 147 151
103 102 104 96 151 163 150 155 163 160 163 162 158 164 164 170 161 170 169 170 171 169 175 147 152 151 152 152 97 168 175 172 175 150 164 152 168 165 168 157 183 162 126
98 127 111 102 155 144 153 160 142 165 156 156 137 155 162 165 129 160 159 163 153 164 167 150 154 152 153 150 159 164 165 162 152 140 120 146 166 155 147 143 105 152 156
96 97 151 103 134 133 148 101 110 119 133 150 143 137 138 149 158 136 135 139 142 141 146 155 152 139 135 166 152 161 164 98 135 118 125 92 117 96 159 143 134 165 166
105 92 94 92 101 101 104 154 150 101 102 96 141 157 153 156 160 137 157 159 160 122 155 159 172 162 160 176 178 113 141 157 155 154 125 152 156 91 152 90 104 110 108
101 96 97 94 92 93 131 94 92 148 150 120 101 111 162 154 123 148 157 152 151 150 156 153 147 157 177 195 164 159 132 163 179 117 153 86 142 104 94 96 104 102 142
99 95 96 95 96 95 90 87 88 93 95 124 92 104 123 96 123 149 147 139 136 148 187 157 162 177 185 167 159 201 219 141 83 126 88 133 86 99 106 93 122 101 118
97 93 90 97 95 95 94 92 91 90 93 95 146 91 111 101 132 127 139 133 127 163 138 162 137 99 172 162 133 137 107 76 83 119 83 94 161 107 131 102 152 87 95
89 91 89 89 89 95 91 93 89 98 94 95 94 97 108 94 100 106 95 108 99 103 84 83 220 201 222 95 218 210 149 115 87 226 239 219 161 100 96 233 210 125 94
87 98 94 90 88 92 102 89 88 95 92 92 101 94 123 104 113 91 96 110 100 85 110 110 111 125 151 203 209 159 155 116 88 202 181 259 135 104 216 224 99 91 224
92 92 91 93 94 88 89 121 88 102 117 101 97 98 165 167 161 166 209 164 212 212 105 103 103 114 109 91 217 84 111 175 124 99 203 144 155 174 187 178 193 99 103
97 99 101 94 97 88 110 104 149 139 106 163 179 188 207 200 207 213 197 205 205 202 202 211 213 217 154 118 209 193 192 123 148 145 94 219 116 227 225 230 225 219 217
105 157 156 155 127 100 103 206 206 162 204 193 184 197 196 205 210 209 208 204 196 202 207 216 221 101 165 72 252 254 253 214 210 207 236 302 123 304 90 301 135 138 308
194 188 189 191 188 193 201 201 203 201 204 200 202 194 196 204 201 204 195 195 207 216 219 226 221 167 209 252 242 208 176 172 85 296 281 123 166 284 295 307 183 289 290
193 181 192 197 138 192 193 194 199 197 200 203 198 205 205 172 197 191 198 177 216 210 203 208 199 165 247 205 215 220 240 281 271 265 260 289 296 283 297 284 303 306 329
134 186 204 190 191 190 192 193 203 214 207 105 82 81 76 215 215 226 230 212 178 218 226 224 226 204 193 210 193 280 284 265 249 264 277 267 263 274 270 348 341 351 364
191 194 201 196 192 194 202 201 204 208 91 206 198 196 222 207 234 174 172 175 220 84 197 240 242 213 222 209 230 274 261 252 253 269 253 273 250 277 319 344 345 373 430
210 199 196 192 195 199 202 202 204 207 211 211 202 202 201 206 171 171 229 237 240 242 228 246 216 218 210 267 268 252 250 257 270 255 259 256 271 266 286 350 380 496 459
Wind_Speed
4 2 2 2 7 8 13 24 25 11 25 23 23 23 28 28 26 24 19 20 22 25 25 17 15 23 17 20 21 10 10 13 13 18 14 19 28 28 27 22 26 28 28
2 4 4 6 6 9 10 18 22 25 23 25 23 17 26 26 26 22 22 23 21 22 23 22 25 16 20 15 23 10 18 12 14 17 16 15 19 23 17 18 20 28 27
5 4 6 5 7 23 13 18 25 24 12 25 19 18 18 28 27 25 26 23 24 14 26 24 25 25 25 26 21 13 6 14 15 20 14 16 15 15 19 15 15 24 25
10 8 8 6 12 19 27 16 21 22 23 16 25 29 22 19 28 29 26 28 25 26 27 26 16 24 25 21 27 21 17 15 19 9 24 17 18 17 24 20 16 16 25
11 13 36 7 8 9 19 27 24 24 24 26 30 30 30 29 22 27 31 27 27 26 27 27 28 28 25 29 22 27 24 7 27 22 14 26 27 24 25 25 26 25 25
12 11 13 9 36 11 35 31 30 28 27 27 28 29 31 33 33 33 27 34 31 31 27 28 30 31 31 32 29 29 31 29 19 28 11 29 28 27 25 27 25 27 30
13 11 8 9 11 18 35 35 32 31 30 30 30 33 30 19 32 35 33 34 34 33 29 28 31 32 33 34 34 33 27 30 31 32 29 31 30 28 23 26 24 29 29
16 10 15 16 36 38 36 36 31 34 33 32 32 33 32 33 26 35 36 38 37 37 35 31 33 32 33 34 36 35 36 36 34 14 27 36 20 21 33 29 25 28 29
14 15 18 34 15 40 39 38 38 36 34 35 35 34 35 35 36 34 37 39 37 40 36 39 31 35 35 35 37 32 38 37 38 32 33 36 39 22 37 26 28 33 32
18 17 17 20 40 43 40 41 41 39 37 37 36 37 38 38 38 39 41 40 39 40 41 33 38 38 38 38 20 40 42 43 41 35 40 36 40 38 38 36 40 37 28
19 31 16 18 45 35 43 45 34 44 39 38 29 37 40 40 19 38 37 38 39 41 42 38 41 40 42 40 44 43 43 44 40 36 22 33 40 38 31 34 13 34 37
21 19 47 16 35 36 42 23 28 33 33 37 32 30 31 34 40 27 27 31 34 35 38 41 43 36 35 47 43 46 46 14 38 21 24 11 23 12 42 30 27 42 43
24 25 23 23 22 22 23 47 44 29 29 31 39 44 41 44 45 32 42 44 45 40 41 45 51 47 47 55 55 19 42 47 46 46 36 43 43 18 42 16 18 21 23
27 26 24 25 25 25 34 25 29 48 49 31 33 33 52 45 35 41 46 43 43 42 45 43 43 48 57 61 52 49 33 52 59 26 48 16 43 24 20 24 25 23 38
31 28 28 27 26 27 29 31 33 34 36 40 36 36 45 38 39 43 41 42 39 46 63 49 55 59 61 56 55 62 59 40 13 36 18 43 20 26 32 24 35 26 36
32 30 30 30 29 30 31 34 38 38 39 40 51 38 42 40 45 44 42 43 43 59 46 58 49 32 59 39 29 33 21 17 18 32 22 28 58 34 46 34 49 26 29
31 33 34 34 34 34 36 37 42 44 43 44 43 43 46 43 44 45 43 48 46 50 14 13 63 60 64 17 66 62 42 32 25 66 69 64 62 32 34 68 61 42 33
34 40 39 39 37 38 40 43 43 48 47 45 50 45 56 49 54 38 46 54 47 13 56 56 56 58 58 64 65 61 50 48 30 63 50 70 47 39 63 62 34 36 63
40 41 42 43 44 43 47 57 46 56 56 55 48 50 74 75 72 75 66 62 67 68 52 48 47 59 55 28 69 26 34 56 53 32 63 56 53 54 65 63 66 39 39
48 50 53 49 52 47 60 51 67 64 48 76 76 76 71 74 70 67 66 70 72 70 72 74 74 72 48 37 66 67 68 55 57 55 35 73 43 74 75 75 75 75 74
60 76 75 74 66 58 62 68 69 77 72 76 76 75 75 73 71 72 72 72 72 75 76 75 76 34 56 19 79 77 74 68 69 71 78 67 59 69 39 69 61 60 73
66 70 71 70 74 73 69 70 71 74 73 74 73 76 72 74 71 74 71 71 80 78 76 75 75 57 67 77 72 68 58 59 29 54 57 45 64 66 67 68 62 71 74
66 58 68 68 49 75 75 75 75 76 77 76 77 76 75 61 75 71 73 65 79 73 67 70 67 58 78 63 69 72 70 51 55 56 60 54 49 63 62 59 62 60 64
46 73 63 74 74 76 76 77 77 73 76 33 23 25 29 78 77 74 75 71 65 77 79 78 78 66 65 69 64 47 44 47 47 51 45 53 57 57 63 46 48 50 55
71 68 64 72 76 78 77 75 77 76 35 77 77 79 75 79 70 63 66 69 76 31 70 79 77 71 73 72 73 46 43 44 45 38 49 43 53 48 57 43 49 52 46
68 67 70 74 76 78 79 79 78 78 77 78 78 79 77 71 66 69 75 77 76 77 74 74 70 71 72 49 41 42 44 43 34 39 37 43 34 46 52 50 48 23 18
Wind_Direction
207 253 302 294 348 327 338 295 285 274 276 305 276 297 273 275 282 288 292 295 300 305 304 280 315 294 296 300 303 340 10 340 9 312 352 299 283 279 278 287 285 284 283
229 250 269 281 282 284 300 336 292 292 279 277 282 284 273 275 277 285 289 294 301 301 306 303 303 305 279 309 301 327 301 335 352 316 343 340 298 296 315 316 288 286 283
263 250 305 296 287 286 323 294 293 280 290 274 293 269 274 279 283 283 286 288 296 312 306 297 295 292 295 291 293 311 14 319 333 305 312 340 353 318 290 321 323 282 290
248 254 253 265 289 286 289 321 291 288 285 284 279 274 283 278 286 281 286 285 291 293 298 300 305 293 292 287 288 297 307 315 312 342 293 345 335 323 290 281 315 308 285
252 261 271 287 267 281 326 287 288 284 283 276 271 278 274 278 288 289 281 291 285 293 295 295 297 294 291 292 301 289 296 306 289 302 342 289 288 295 299 288 288 292 293
243 260 259 297 278 269 286 299 311 282 280 277 282 284 275 273 274 279 288 280 285 282 293 298 297 295 293 292 293 288 288 290 310 288 357 283 283 288 288 290 296 284 284
244 268 264 271 271 277 285 284 285 284 281 280 282 274 284 302 280 278 282 282 280 281 291 292 291 293 290 290 290 292 284 291 290 290 292 287 281 286 330 289 290 292 284
243 247 250 257 285 279 282 280 280 285 285 283 281 280 283 274 285 279 278 279 281 281 282 288 287 288 286 286 289 284 285 286 285 304 290 286 300 314 287 289 306 288 283
244 242 245 282 276 278 280 283 283 284 286 285 284 283 283 280 276 284 283 280 282 280 284 281 289 288 287 289 290 291 285 283 282 285 291 281 281 315 278 324 300 277 280
231 239 253 252 276 276 281 281 281 282 281 283 284 285 284 283 282 281 280 282 283 283 285 290 288 288 286 284 310 291 286 282 284 282 277 277 280 275 276 277 276 276 293
236 260 267 251 274 283 277 279 281 280 284 285 286 287 286 284 280 284 286 285 287 286 285 287 286 286 285 284 287 288 285 283 278 275 300 277 278 275 280 273 318 274 271
243 245 268 256 269 275 279 283 283 284 284 288 287 284 297 290 286 293 286 284 284 283 285 287 285 279 277 288 282 284 284 285 278 291 286 316 285 319 277 284 283 273 271
244 254 256 264 267 271 276 278 279 287 287 291 286 287 290 286 288 286 290 289 288 286 286 287 291 288 286 290 291 290 287 278 276 275 269 272 273 315 272 308 305 303 297
243 250 252 262 267 271 281 282 286 280 281 282 284 282 287 290 276 289 293 292 289 288 290 286 282 285 291 290 285 278 279 279 285 284 271 308 266 302 304 304 301 303 280
254 259 254 259 263 268 277 284 283 283 283 283 290 284 288 291 289 289 288 284 279 288 293 286 291 291 293 288 284 290 290 273 293 285 295 277 302 296 293 301 284 304 300
259 269 274 263 266 266 269 273 276 279 280 281 285 287 289 284 286 286 278 276 272 293 278 291 274 297 291 286 282 282 280 278 294 292 291 292 267 285 274 296 276 293 302
267 267 269 271 272 269 273 270 275 273 275 275 278 277 280 283 279 279 285 277 289 287 237 231 288 290 292 266 293 293 289 289 289 290 288 287 269 292 294 276 277 282 295
260 263 261 263 267 266 268 268 273 273 273 275 274 276 282 280 279 284 279 283 281 249 278 282 282 276 284 292 295 279 284 277 285 292 288 288 284 285 283 277 287 290 272
260 262 262 262 261 264 265 276 273 273 276 269 274 270 289 290 291 293 294 292 295 295 284 291 275 280 282 262 299 269 291 294 275 293 290 281 284 277 275 272 270 287 292
262 263 264 263 262 264 274 275 284 284 281 286 285 290 293 293 294 294 295 295 296 296 300 296 297 297 288 283 296 296 293 280 283 283 291 288 288 282 281 276 271 270 266
268 267 270 274 272 264 268 283 283 283 285 286 287 290 291 293 293 293 293 295 299 299 299 296 296 272 293 283 298 297 297 292 288 285 291 292 277 288 277 281 271 272 269
270 271 274 277 277 279 282 283 283 284 284 286 288 289 290 292 292 293 297 299 296 294 298 297 300 296 299 299 298 296 291 286 274 296 297 280 285 291 287 283 279 271 267
268 271 272 275 276 278 281 283 283 284 284 286 287 288 289 289 292 294 295 288 291 301 300 300 298 295 300 294 299 299 299 299 302 301 295 301 308 300 298 290 290 279 263
271 267 274 271 275 278 280 281 281 283 283 278 275 261 268 288 289 286 286 290 289 293 295 299 298 295 292 298 298 297 298 299 299 297 306 306 306 310 305 305 298 290 275
265 267 272 272 275 277 279 279 280 281 276 283 285 287 285 291 288 286 285 287 291 286 291 298 298 298 300 299 303 297 298 297 298 294 302 307 309 315 348 327 318 295 283
278 271 270 273 275 276 278 280 282 283 283 284 285 289 291 287 283 285 291 292 293 293 294 296 298 299 298 297 297 299 301 302 303 303 308 310 320 319 343 347 349 322 280